Regional Weather Roundup
Issued by NWS Little Rock, AR

Current Version | Previous Version | Text Only | Print | Product List | Glossary On
Versions: 1 2 3 4 5 6 7 8 9 10 11 12 13 14 15 16 17 18 19 20 21 22 23 24 25 26 27 28 29 30 31 32 33 34 35 36 37 38 39 40 41 42 43 44 45 46 47 48 49 50
000
ASUS44 KLZK 261205
RWRLZK

WEATHER ROUNDUP FOR ARKANSAS
NATIONAL WEATHER SERVICE LITTLE ROCK AR
700 AM CDT THU MAY 26 2016

NOTE: "FAIR" INDICATES FEW OR NO CLOUDS BELOW 12,000 FEET WITH NO
SIGNIFICANT WEATHER AND/OR OBSTRUCTIONS TO VISIBILITY.

ARZ001-003-010-029-261300-
NORTHWEST ARKANSAS

CITY           SKY/WX    TMP DP  RH WIND       PRES   REMARKS
FAYETTEVILLE   CLEAR     74  73  97 S10       29.95S
6HR MIN TEMP:  73; 6HR MAX TEMP:  75;

FORT SMITH     CLOUDY    74  71  91 S6        29.95R
6HR MIN TEMP:  72; 6HR MAX TEMP:  76;

HARRISON       CLOUDY    73  70  90 S3        29.97R
6HR MIN TEMP:  68; 6HR MAX TEMP:  73;

BENTONVILLE    CLOUDY    75  68  78 SW6G17    29.95R
6HR MIN TEMP:  73; 6HR MAX TEMP:  75;

ROGERS           N/A     75  72  88 SW7       29.97R
6HR MIN TEMP:  72; 6HR MAX TEMP:  75;

SILOAM SPGS    CLOUDY    73  64  73 S13       29.95R
6HR MIN TEMP:  73; 6HR MAX TEMP:  73;

HIGHFILL       CLOUDY    75  73  93 S10       29.94R
6HR MIN TEMP:  73; 6HR MAX TEMP:  75;

$$

ARZ004-005-016-261300-
NORTH CENTRAL ARKANSAS

CITY           SKY/WX    TMP DP  RH WIND       PRES   REMARKS
BATESVILLE     CLOUDY    73  72  94 S7        29.99R
6HR MIN TEMP:  73; 6HR MAX TEMP:  75;

FLIPPIN        MOSUNNY  N/A N/A N/A CALM      29.93R
MTN HOME       SUNNY     72  71  97 S3        29.95R FOG
6HR MIN TEMP:  70; 6HR MAX TEMP:  72;

$$

ARZ040-041-261300-
WEST CENTRAL ARKANSAS

CITY           SKY/WX    TMP DP  RH WIND       PRES   REMARKS
MENA           PTCLDY    79  73  83 SW8       29.99S
MOUNT IDA      CLOUDY    77  70  79 VRB3      29.98R
6HR MIN TEMP:  77; 6HR MAX TEMP:  80;

$$

ARZ009-017-025-026-028-261300-
NORTHEAST ARKANSAS

CITY           SKY/WX    TMP DP  RH WIND       PRES   REMARKS
CORNING          N/A     72  72 100 S8        29.99S
JONESBORO      MOSUNNY   71  68  90 S9        30.01R
6HR MIN TEMP:  70; 6HR MAX TEMP:  72;

NEWPORT        MOSUNNY   73  73 100 S8        30.01R
6HR MIN TEMP:  72; 6HR MAX TEMP:  75;

WALNUT RIDGE   PTSUNNY   72  66  83 S13       29.99S
6HR MIN TEMP:  70; 6HR MAX TEMP:  73; 6HR PCP:  0.40;

BLYTHEVILLE    SUNNY     72  67  84 S10       30.03R
6HR MIN TEMP:  68; 6HR MAX TEMP:  72;

$$

ARZ022-023-033-042-044-261300-
CENTRAL ARKANSAS

CITY           SKY/WX    TMP DP  RH WIND       PRES   REMARKS
LITTLE ROCK    CLOUDY    77  72  84 SW12      30.01R
6HR MIN TEMP:  76; 6HR MAX TEMP:  79;

N LITTLE ROCK    N/A     75  72  90 SW7       29.98R
6HR MIN TEMP:  75; 6HR MAX TEMP:  77;

SEARCY         CLOUDY    73  73 100 S5        30.01F
6HR MIN TEMP:  70; 6HR MAX TEMP:  75;

HOT SPRINGS    CLOUDY    76  71  85 SW12G21   30.01R
6HR MIN TEMP:  75; 6HR MAX TEMP:  79;

RUSSELLVILLE   SUNNY     76  73  91 VRB3      29.97R
6HR MIN TEMP:  75; 6HR MAX TEMP:  77;

CLINTON        CLOUDY    73  73 100 CALM      29.98R FOG
$$

ARZ036-261300-
EAST ARKANSAS

CITY           SKY/WX    TMP DP  RH WIND       PRES   REMARKS
WEST MEMPHIS   SUNNY     73  69  87 S12       30.03R
6HR MIN TEMP:  68; 6HR MAX TEMP:  73;

$$

ARZ050-053-066-070-073-261300-
SOUTHWEST ARKANSAS

CITY           SKY/WX    TMP DP  RH WIND       PRES   REMARKS
ARKADELPHIA    PTSUNNY   72  72 100 CALM      30.01S
6HR MIN TEMP:  69; 6HR MAX TEMP:  76;

CAMDEN         CLEAR     73  70  88 S3        30.02R FOG
TEXARKANA      CLOUDY    75  72  90 S10       29.99S FOG
6HR MIN TEMP:  74; 6HR MAX TEMP:  79;

EL DORADO      PTCLDY    74  73  97 S6        30.03R
6HR MIN TEMP:  73; 6HR MAX TEMP:  77;

DE QUEEN       CLOUDY    76  73  91 S6        29.97R
6HR MIN TEMP:  76; 6HR MAX TEMP:  80;

$$

ARZ056-057-069-261300-
SOUTHEAST ARKANSAS

CITY           SKY/WX    TMP DP  RH WIND       PRES   REMARKS
PINE BLUFF     SUNNY     75  72  90 S9        30.02R
6HR MIN TEMP:  75; 6HR MAX TEMP:  77;

STUTTGART      MOSUNNY   73  68  83 S12       30.03R
6HR MIN TEMP:  73; 6HR MAX TEMP:  79;

MONTICELLO     FOG       73  72  96 S6        30.05R VSB 3/4
6HR MIN TEMP:  72; 6HR MAX TEMP:  74;


$$





USA.gov is the U.S. government's official web portal to all federal, state and local government web resources and services.